[Iaude] MPEC W35: 2016 WX [a=1.19,e=0.33,i=12.4,H=25.5]

mpec at si.edu mpec at si.edu
Mon Nov 21 10:17:35 EST 2016


M.P.E.C. 2016-W35                                Issued 2016 Nov. 21, 15:14 UT
 
     The Minor Planet Electronic Circulars contain information on unusual
         minor planets and routine data on comets.  They are published
    on behalf of Division F of the International Astronomical Union by the
          Minor Planet Center, Smithsonian Astrophysical Observatory,
                          Cambridge, MA 02138, U.S.A.

             Prepared using the Tamkin Foundation Computer Network

                              MPC at CFA.HARVARD.EDU
            URL http://www.minorplanetcenter.net/    ISSN 1523-6714


                                    2016 WX
 
Observations:
     K16W00X* C2016 11 19.19143 02 10 23.13 +23 27 58.7          20.7 VqEW035G96
     K16W00X  C2016 11 19.19722 02 10 22.80 +23 28 50.5          20.6 VqEW035G96
     K16W00X  C2016 11 19.20163 02 10 22.57 +23 29 29.4          20.4 VqEW035G96
     K16W00X  C2016 11 19.20735 02 10 22.31 +23 30 20.3          20.7 VqEW035G96
     K16W00X KC2016 11 19.26084 02 10 19.65 +23 38 09.9          20.2 RoEW035291
     K16W00X KC2016 11 19.26497 02 10 19.44 +23 38 45.6          20.2 RoEW035291
     K16W00X KC2016 11 19.26911 02 10 19.23 +23 39 21.3          20.4 RoEW035291
     K16W00X  C2016 11 19.35901202 10 14.94 +23 51 57.0          20.3 VUEW035H01
     K16W00X  C2016 11 19.36561 02 10 14.99 +23 52 57.6          20.7 VqEW035G96
     K16W00X  C2016 11 19.36590302 10 14.73 +23 52 54.3          20.4 VUEW035H01
     K16W00X  C2016 11 19.36712 02 10 14.91 +23 53 10.3          21.1 VqEW035G96
     K16W00X  C2016 11 19.36862 02 10 14.81 +23 53 23.0                qEW035G96
     K16W00X  C2016 11 19.37016 02 10 14.84 +23 53 35.3          20.4 VqEW035G96
     K16W00X  C2016 11 19.37232102 10 14.53 +23 53 47.6          20.7 VUEW035H01
     K16W00X  C2016 11 19.38235002 10 14.26 +23 55 10.6          20.7 VUEW035H01
     K16W00X  C2016 11 20.22920102 10 22.49 +25 46 12.5          21.1 VUEW035H01
     K16W00X  C2016 11 20.23601402 10 22.20 +25 47 01.6          20.9 VUEW035H01
     K16W00X  C2016 11 20.24441002 10 21.84 +25 48 02.0          21.0 VUEW035H01
     K16W00X  C2016 11 20.25123502 10 21.54 +25 48 50.9          21.8 VUEW035H01
     K16W00X  C2016 11 20.35649 02 10 17.91 +26 01 12.5          20.9 VqEW035G96
     K16W00X  C2016 11 20.35745 02 10 17.94 +26 01 19.7          20.9 VqEW035G96
     K16W00X  C2016 11 20.35848 02 10 17.89 +26 01 27.2          21.2 VqEW035G96
     K16W00X  C2016 11 20.36088 02 10 17.84 +26 01 42.6          20.6 VqEW035G96
     K16W00X "C2016 11 21.27334302 10 25.96 +27 40 53.6          20.9 RtEW035705
     K16W00X "C2016 11 21.27436902 10 25.92 +27 40 59.7          21.0 RtEW035705
     K16W00X "C2016 11 21.27538702 10 25.87 +27 41 04.9          20.7 RtEW035705
 
Observer details:
291 LPL/Spacewatch II.  Observer T. H. Bressi.  1.8-m f/2.7 reflector + CCD.
705 Apache Point.  Observers K. Nault, M. Hammergren, M. Brucker.  Measurer
    K. Nault.  3.5-m f/10 reflector + CCD.
G96 Mt. Lemmon Survey.  Observer G. J. Leonard.  Measurers E. J. Christensen,
    D. C. Fuls, A. R. Gibbs, A. D. Grauer, J. A. Johnson, R. A. Kowalski,
    S. M. Larson, G. J. Leonard, R. G. Matheny, R. L. Seaman, F. C. Shelly.
    1.5-m reflector + 10K CCD.
H01 Magdalena Ridge Observatory, Socorro.  Observers W. H. Ryan, E. V. Ryan.
    Measurer W. H. Ryan.  2.4-m f/8.9 reflector + CCD.
 
Orbital elements:
2016 WX                                                  Earth MOID = 0.0247 AU
Epoch 2017 Feb. 16.0 TT = JDT 2457800.5                 MPC
M 118.49374              (2000.0)            P               Q
n   0.75774753     Peri.  275.16523     +0.83253729     +0.52647360
a   1.1915704      Node    53.18111     -0.38334143     +0.77212241
e   0.3273811      Incl.   12.43334     -0.39991375     +0.35588275
P   1.30           H   25.5           G   0.15           U   7
Residuals in seconds of arc
161119 G96  0.3+  0.3-    161119 H01  0.2+  0.2-    161120 H01  0.1+  0.1-
161119 G96  0.2-  0.0     161119 G96  0.1+  0.3+    161120 G96  0.9-  0.3-
161119 G96  0.3-  0.2-    161119 G96  0.6-  0.5+    161120 G96  0.1-  0.3+
161119 G96  0.1+  0.0     161119 G96  0.5+  0.0     161120 G96  0.3-  0.7+
161119 291  0.1-  0.1+    161119 H01  0.1+  0.2-    161120 G96  0.1-  0.3-
161119 291  0.1-  0.1+    161119 H01  0.2+  0.3-    161121 705  0.2+  0.2+
161119 291  0.1-  0.0     161120 H01  0.1+  0.1-    161121 705  0.2+  0.3+
161119 H01  0.1+  0.2-    161120 H01  0.2+  0.1-    161121 705  0.0   0.5-
161119 G96  0.5+  0.1+    161120 H01  0.2+  0.1-

Ephemeris:
2016 WX                  a,e,i = 1.19, 0.33, 12                  q = 0.8015
Date    TT    R. A. (2000) Decl.     Delta      r     Elong.  Phase     V
2016 10 22    14 04 49.7 -56 25 43   0.1381  0.9038    45.5   128.2    26.5
...
2016 11 06    12 58 10.1 -86 32 11   0.04120 0.9786    70.9   106.8    22.5
...
2016 11 14    02 11 27.4 -00 52 55   0.03532 1.0214   154.9    24.2    19.4
...
2016 11 20    02 10 22.0 +25 18 11   0.07082 1.0541   158.0    20.5    20.9
2016 11 21    02 10 26.6 +27 13 02   0.07748 1.0595   156.8    21.5    21.1
2016 11 22    02 10 34.4 +28 49 20   0.08425 1.0650   155.7    22.5    21.3
...
2016 11 28    02 12 22.6 +34 39 11   0.1265  1.0977   149.7    26.9    22.4
...
2016 12 06    02 17 17.5 +37 55 58   0.1863  1.1409   143.7    30.7    23.5
...
2016 12 21    02 33 02.7 +39 57 39   0.3080  1.2189   134.3    35.3    24.8

A. U. Tomatic                (C) Copyright 2016 MPC           M.P.E.C. 2016-W35




More information about the Iaude mailing list